User: anonymous   Login
Location: Baix
(44.7118°N, 4.7648°E)
Time: 16:21:28
(UTC+00:00)
Language:

Cosmos 1726 - Orbit

View from above orbital plane
View from above orbital plane
View from above satellite
View from above satellite

Ground track
Ground track

The orbit data is extracted from the following two-line orbital elements,

1 16495U 86006A   20292.71198220 +.00000963 +00000-0 +37020-4 0  9994
2 16495 082.4695 286.4133 0011235 230.4544 129.5701 15.25148679901847
Epoch (UTC): 18 October 2020 17:05:15
Eccentricity: 0.0011235
inclination: 82.4695°
perigee height: 482 km
apogee height: 498 km
right ascension of ascending node: 286.4133°
argument of perigee: 230.4544°
revolutions per day: 15.25148679
mean anomaly at epoch: 129.5701°
orbit number at epoch: 90184

The dashed part of the orbit path shows where the satellite is in the earth's shadow,  

DLR